Regional Weather Roundup
Issued by NWS

Home | Current Version | Previous Version | Text Only | Print | Product List | Glossary Off
Versions: 1 2 3 4 5 6 7 8 9 10 11 12 13 14 15 16 17 18 19 20 21 22 23 24 25 26 27

000
ASUS45 KCYS 230010
RWRWY

WYOMING REGIONAL WEATHER ROUNDUP
NATIONAL WEATHER SERVICE CHEYENNE WY
600 PM MDT WED MAR 22 2017

NOTE:  "FAIR" INDICATES FEW OR NO CLOUDS BELOW 12,000 FEET
WITH NO SIGNIFICANT WEATHER AND/OR OBSTRUCTIONS TO VISIBILITY.

WYZ001-230100-
YELLOWSTONE NATIONAL PARK

CITY           SKY/WX    TMP DP  RH WIND       PRES   REMARKS
LK YELLOWSTONE   N/A     37  31  78 VRB6      29.92R WCI  32
6HR MIN TEMP:  37; 6HR MAX TEMP:  45;

W YELLOWSTONE  NOT AVBL

$$
WYZ002>013-054>058-071-098>099-230100-
NORTHERN WYOMING

CITY           SKY/WX    TMP DP  RH WIND       PRES   REMARKS
JACKSON        MOSUNNY   41  37  87 W8        29.89S
CODY           FAIR      58  35  42 N7        29.75F
GREYBULL       FAIR      67  38  34 N3        29.69F
6HR MIN TEMP:  52; 6HR MAX TEMP:  68;

WORLAND        FAIR      67  35  30 SW14      29.70F
6HR MIN TEMP:  53; 6HR MAX TEMP:  70;

SHERIDAN       FAIR      60  40  47 N3        29.77F
6HR MIN TEMP:  47; 6HR MAX TEMP:  60;

BUFFALO        PTSUNNY   58  38  47 NE6       29.80F
6HR MIN TEMP:  50; 6HR MAX TEMP:  61; 6HR PCP: TRACE;

GILLETTE       FAIR      61  40  45 E6        29.78S
6HR MIN TEMP:  58; 6HR MAX TEMP:  66;

HULETT         FAIR      59  36  41 NE6       29.79S
NEWCASTLE      FAIR      68  32  26 N5        29.77S

$$
WYZ014>020-022>026-101>103-230100-
CENTRAL WYOMING

CITY           SKY/WX    TMP DP  RH WIND       PRES   REMARKS
BIG PINEY      PTSUNNY   43  36  76 N7        29.88F
6HR MIN TEMP:  40; 6HR MAX TEMP:  46; 6HR PCP:  0.02;

PINEDALE       RAIN      43  34  70 CALM      29.91F
DUBOIS         FAIR      43  28  56 NW15G31   29.84F
LANDER         FAIR      53  34  48 SW9G21    29.78F
6HR MIN TEMP:  48; 6HR MAX TEMP:  60; 6HR PCP: TRACE;

RIVERTON       FAIR      54  36  50 SW12      29.79F
6HR MIN TEMP:  53; 6HR MAX TEMP:  62; 6HR PCP: TRACE;

CASPER         FAIR      60  36  40 W8        29.81F
6HR MIN TEMP:  56; 6HR MAX TEMP:  68; 6HR PCP: TRACE;

DOUGLAS        FAIR      64  36  35 W21       29.80S
6HR MIN TEMP:  56; 6HR MAX TEMP:  72;


$$
WYZ021-027>030-104>119-230100-
SOUTHERN WYOMING

CITY           SKY/WX    TMP DP  RH WIND       PRES   REMARKS
EVANSTON       PTSUNNY   45  33  63 NW13      29.87S
6HR MIN TEMP:  44; 6HR MAX TEMP:  54;

KEMMERER         N/A     41  34  75 N8        29.89R
FORT BRIDGER   FAIR      48  37  67 N8        29.89F
ROCK SPRINGS   PTSUNNY   50  38  63 W15       29.87R
6HR MIN TEMP:  48; 6HR MAX TEMP:  61; 6HR PCP: TRACE;

DIXON            N/A     63  22  20 SW14G22   29.89S
RAWLINS        FAIR      61  20  20 SW16      29.85F
6HR MIN TEMP:  58; 6HR MAX TEMP:  66;

SARATOGA       FAIR      59  21  23 SW20G30   29.91S
LARAMIE        FAIR      60  18  19 SW28G35   29.89S
6HR MIN TEMP:  60; 6HR MAX TEMP:  66;

CHEYENNE       FAIR      63  29  27 S12       29.87F
6HR MIN TEMP:  58; 6HR MAX TEMP:  68;

TORRINGTON     FAIR      71  31  22 SE15      29.77F
6HR MIN TEMP:  58; 6HR MAX TEMP:  73;

PINE BLUFFS    FAIR      64  32  29 S15       29.84S

$$




USA.gov is the U.S. government's official web portal to all federal, state and local government web resources and services.